When you browse on this site, cookies collect data to enhance your experience and personalize the content and advertising you see.
Visit our Privacy Policy to learn more. By continuing to use the site, you agree to this use of cookies and data.
  • In Belgium
  • List of Countries
  • For 7 days
  • Water Temperature
  • Satellite Maps
  • Weather Map
  • Weather Widgets
  • user-avatar
    Login

    Hourly Weather Golden Sands

    Today, 18 June, Tuesday

    Time Temperature Precipitation Wind Pressure Humidity
    00:00 +22°C° 0 mm 5 mps 758 mmHg 79%
    01:00 +22°C° 0 mm 5 mps 758 mmHg 77%
    02:00 +22°C° 0 mm 6 mps 758 mmHg 74%
    03:00 +21°C° 0 mm 6 mps 758 mmHg 73%
    04:00 +21°C° 0 mm 7 mps 758 mmHg 73%
    05:00 +21°C° 0 mm 7 mps 758 mmHg 72%
    06:00 +23°C° 0 mm 7 mps 758 mmHg 69%
    07:00 +24°C° 0 mm 7 mps 759 mmHg 66%
    08:00 +27°C° 0 mm 6 mps 759 mmHg 63%
    09:00 +28°C° 0 mm 6 mps 759 mmHg 59%
    10:00 +29°C° 0 mm 5 mps 759 mmHg 55%
    11:00 +30°C° 0 mm 5 mps 759 mmHg 51%
    12:00 +30°C° 0 mm 5 mps 759 mmHg 51%
    13:00 +30°C° 0 mm 5 mps 759 mmHg 51%
    14:00 +30°C° 0 mm 5 mps 759 mmHg 50%
    15:00 +29°C° 0 mm 5 mps 759 mmHg 51%
    16:00 +29°C° 0 mm 5 mps 759 mmHg 52%
    17:00 +28°C° 0 mm 6 mps 759 mmHg 53%
    18:00 +27°C° 0 mm 5 mps 758 mmHg 61%
    19:00 +25°C° 0 mm 4 mps 758 mmHg 69%
    20:00 +23°C° 0 mm 4 mps 758 mmHg 77%
    21:00 +22°C° 0 mm 4 mps 759 mmHg 78%
    22:00 +21°C° 0 mm 4 mps 759 mmHg 79%
    23:00 +21°C° 0 mm 4 mps 759 mmHg 80%

    Tomorrow, 19 June, Wednesday

    Time Temperature Precipitation Wind Pressure Humidity
    00:00 +20°C° 0 mm 4 mps 759 mmHg 80%
    01:00 +20°C° 0 mm 4 mps 759 mmHg 80%
    02:00 +20°C° 0 mm 4 mps 758 mmHg 79%
    03:00 +20°C° 0 mm 5 mps 758 mmHg 77%
    04:00 +20°C° 0 mm 5 mps 758 mmHg 74%
    05:00 +20°C° 0 mm 6 mps 758 mmHg 72%
    06:00 +22°C° 0 mm 6 mps 759 mmHg 65%
    07:00 +25°C° 0 mm 5 mps 759 mmHg 59%
    08:00 +27°C° 0 mm 5 mps 759 mmHg 52%
    09:00 +28°C° 0 mm 5 mps 759 mmHg 50%
    10:00 +29°C° 0 mm 4 mps 759 mmHg 47%
    11:00 +30°C° 0 mm 4 mps 759 mmHg 45%
    12:00 +30°C° 0 mm 4 mps 758 mmHg 45%
    13:00 +30°C° 0 mm 3 mps 758 mmHg 45%
    14:00 +31°C° 0 mm 3 mps 758 mmHg 44%
    15:00 +30°C° 0 mm 3 mps 757 mmHg 47%
    16:00 +29°C° 0 mm 3 mps 757 mmHg 50%
    17:00 +29°C° 0 mm 3 mps 757 mmHg 53%
    18:00 +27°C° 0 mm 2 mps 757 mmHg 61%
    19:00 +26°C° 0 mm 2 mps 757 mmHg 69%
    20:00 +24°C° 0 mm 2 mps 757 mmHg 78%
    21:00 +22°C° 0 mm 3 mps 757 mmHg 80%
    22:00 +22°C° 0 mm 3 mps 757 mmHg 82%
    23:00 +21°C° 0 mm 4 mps 757 mmHg 84%

    Day after tomorrow, 20 June, Thursday

    Time Temperature Precipitation Wind Pressure Humidity
    00:00 +21°C° 0 mm 4 mps 757 mmHg 85%
    01:00 +21°C° 0 mm 4 mps 757 mmHg 86%
    02:00 +20°C° 0 mm 4 mps 757 mmHg 88%
    03:00 +20°C° 0 mm 3 mps 757 mmHg 88%
    04:00 +20°C° 0 mm 3 mps 757 mmHg 88%
    05:00 +20°C° 0 mm 3 mps 757 mmHg 89%
    06:00 +22°C° 0 mm 3 mps 757 mmHg 79%
    07:00 +25°C° 0 mm 4 mps 757 mmHg 70%
    08:00 +27°C° 0 mm 4 mps 757 mmHg 61%
    09:00 +28°C° 0 mm 3 mps 757 mmHg 58%
    10:00 +29°C° 0 mm 3 mps 757 mmHg 55%
    11:00 +30°C° 0 mm 2 mps 757 mmHg 52%
    12:00 +30°C° 0 mm 3 mps 757 mmHg 52%
    13:00 +30°C° 0 mm 3 mps 757 mmHg 52%
    14:00 +30°C° 0 mm 4 mps 757 mmHg 52%
    15:00 +29°C° 0 mm 4 mps 756 mmHg 55%
    16:00 +29°C° 0 mm 4 mps 756 mmHg 57%
    17:00 +29°C° 0 mm 4 mps 756 mmHg 60%
    18:00 +27°C° 0 mm 3 mps 756 mmHg 67%
    19:00 +26°C° 0 mm 3 mps 756 mmHg 74%
    20:00 +24°C° 0 mm 3 mps 757 mmHg 81%
    21:00 +24°C° 0 mm 3 mps 757 mmHg 83%
    22:00 +24°C° 0 mm 3 mps 757 mmHg 84%
    23:00 +22°C° 0 mm 3 mps 757 mmHg 86%

    21 June, Friday

    Time Temperature Precipitation Wind Pressure Humidity
    00:00 +22°C° 0.1 mm 3 mps 757 mmHg 87%
    01:00 +22°C° 0.1 mm 3 mps 757 mmHg 88%
    02:00 +21°C° 0.1 mm 3 mps 757 mmHg 89%
    03:00 +21°C° 0 mm 3 mps 757 mmHg 88%
    04:00 +21°C° 0 mm 4 mps 757 mmHg 87%
    05:00 +21°C° 0 mm 5 mps 757 mmHg 86%
    06:00 +23°C° 0 mm 4 mps 757 mmHg 79%
    07:00 +26°C° 0 mm 4 mps 757 mmHg 72%
    08:00 +28°C° 0 mm 4 mps 758 mmHg 65%
    09:00 +29°C° 0 mm 4 mps 758 mmHg 61%
    10:00 +30°C° 0 mm 4 mps 758 mmHg 57%
    11:00 +32°C° 0 mm 4 mps 758 mmHg 53%
    12:00 +32°C° 0 mm 4 mps 758 mmHg 53%
    13:00 +32°C° 0 mm 4 mps 758 mmHg 53%
    14:00 +32°C° 0 mm 5 mps 758 mmHg 53%
    15:00 +32°C° 0 mm 5 mps 757 mmHg 55%
    16:00 +30°C° 0 mm 5 mps 757 mmHg 58%
    17:00 +30°C° 0 mm 5 mps 757 mmHg 60%
    18:00 +28°C° 0 mm 4 mps 757 mmHg 67%
    19:00 +27°C° 0 mm 4 mps 757 mmHg 74%
    20:00 +26°C° 0 mm 3 mps 757 mmHg 80%
    21:00 +25°C° 0 mm 3 mps 757 mmHg 80%
    22:00 +25°C° 0 mm 4 mps 758 mmHg 80%
    23:00 +23°C° 0 mm 4 mps 758 mmHg 79%

    22 June, Saturday

    Time Temperature Precipitation Wind Pressure Humidity
    00:00 +23°C° 0 mm 5 mps 757 mmHg 79%
    01:00 +23°C° 0 mm 5 mps 757 mmHg 78%
    02:00 +23°C° 0 mm 6 mps 757 mmHg 77%
    03:00 +23°C° 0 mm 6 mps 757 mmHg 77%
    04:00 +22°C° 0 mm 6 mps 757 mmHg 77%
    05:00 +22°C° 0 mm 6 mps 757 mmHg 77%
    06:00 +24°C° 0 mm 6 mps 758 mmHg 72%
    07:00 +27°C° 0 mm 5 mps 758 mmHg 67%
    08:00 +29°C° 0 mm 5 mps 758 mmHg 62%
    09:00 +30°C° 0 mm 5 mps 758 mmHg 57%
    10:00 +32°C° 0 mm 4 mps 758 mmHg 51%
    11:00 +33°C° 0 mm 4 mps 759 mmHg 46%
    12:00 +34°C° 0 mm 4 mps 758 mmHg 46%
    13:00 +34°C° 0 mm 3 mps 758 mmHg 46%
    14:00 +34°C° 0 mm 3 mps 758 mmHg 45%
    15:00 +32°C° 0 mm 4 mps 758 mmHg 52%
    16:00 +29°C° 0 mm 4 mps 758 mmHg 59%
    17:00 +27°C° 0 mm 4 mps 758 mmHg 65%
    18:00 +26°C° 0 mm 4 mps 758 mmHg 65%
    19:00 +26°C° 0 mm 5 mps 758 mmHg 65%
    20:00 +25°C° 0 mm 5 mps 758 mmHg 64%
    21:00 +25°C° 0 mm 5 mps 759 mmHg 64%
    22:00 +25°C° 0 mm 4 mps 759 mmHg 65%
    23:00 +25°C° 0 mm 3 mps 759 mmHg 65%

    23 June, Sunday

    Time Temperature Precipitation Wind Pressure Humidity
    00:00 +24°C° 0 mm 3 mps 759 mmHg 66%
    01:00 +24°C° 0 mm 3 mps 759 mmHg 68%
    02:00 +24°C° 0 mm 3 mps 759 mmHg 69%
    03:00 +24°C° 0 mm 3 mps 759 mmHg 70%
    04:00 +22°C° 0 mm 3 mps 758 mmHg 70%
    05:00 +22°C° 0 mm 3 mps 758 mmHg 70%
    06:00 +25°C° 0 mm 3 mps 759 mmHg 65%
    07:00 +27°C° 0 mm 3 mps 759 mmHg 61%
    08:00 +29°C° 0 mm 2 mps 759 mmHg 57%
    09:00 +30°C° 0 mm 2 mps 759 mmHg 52%
    10:00 +31°C° 0 mm 1 mps 759 mmHg 48%
    11:00 +32°C° 0 mm 1 mps 759 mmHg 44%
    12:00 +32°C° 0 mm 1 mps 759 mmHg 44%
    13:00 +32°C° 0 mm 2 mps 759 mmHg 45%
    14:00 +34°C° 0 mm 2 mps 759 mmHg 46%
    15:00 +32°C° 0 mm 2 mps 758 mmHg 48%
    16:00 +31°C° 0 mm 2 mps 758 mmHg 50%
    17:00 +31°C° 0 mm 1 mps 758 mmHg 52%
    18:00 +29°C° 0 mm 1 mps 758 mmHg 58%
    19:00 +28°C° 0 mm 1 mps 758 mmHg 64%
    20:00 +24°C° 0 mm 0 mps 758 mmHg 70%
    21:00 +26°C° 0 mm 1 mps 758 mmHg 69%
    22:00 +25°C° 0 mm 1 mps 759 mmHg 69%
    23:00 +25°C° 0 mm 1 mps 759 mmHg 68%
    Show more